User: anonymous   Login
Location: Byszew
(52.1813°N, 19.2693°E)
Time: 20:36:26
(UTC+00:00)
Language:

Cosmos 2333 - Orbit

View from above orbital plane
View from above orbital plane
View from above satellite
View from above satellite

Ground track
Ground track

The orbit data is extracted from the following two-line orbital elements,

1 24297U 96051A   21136.72706461  .00000278  00000-0  17322-3 0  9996
2 24297  70.9049 285.1305 0025047 222.6817 137.2359 14.13358585273819
Epoch (UTC): 16 May 2021 17:26:58
Eccentricity: 0.0025047
inclination: 70.9049°
perigee height: 830 km
apogee height: 866 km
right ascension of ascending node: 285.1305°
argument of perigee: 222.6817°
revolutions per day: 14.13358585
mean anomaly at epoch: 137.2359°
orbit number at epoch: 27381

The dashed part of the orbit path shows where the satellite is in the earth's shadow,  

DLR